Flag for Germany Weather past 2 weeks in Potsdam, Brandenburg, Germany

Now
67 °F

Partly sunny.


Feels Like: 67 °F
Forecast: 50 / 68 °F
Wind: 3 mph from West

Location: Potsdam

Current Time: Sep 2, 2015 at 5:24:23 PM

Latest Report: Sep 2, 2015 at 5:00 PM


Visibility: 31 mi

Pressure: 29.99 "Hg

Humidity: 48%

Dew point: 47 °F

Location of PotsdamLocation

Historic Weather in Potsdam — Graph

°F

Potsdam temperature yesterday

Maximum temperature yesterday: 82 °F (at 3:00 PM)
Minimum temperature yesterday: 60 °F (at 11:00 PM)
Average temperature yesterday: 72 °F

Past Weeks' High & Low Weather Summary

 TemperatureHumidityPressure
High93 °F (Aug 31, 4:00 PM)100% (Aug 19, 6:00 AM)30.31 "Hg (Aug 19, 6:00 AM)
Low54 °F (Aug 29, 7:00 AM)22% (Aug 22, 5:00 PM)29.70 "Hg (Aug 24, 10:00 PM)
Average67 °F69%30.02 "Hg
* Reported Aug 18 4:00 PM — Sep 2 4:00 PM, Potsdam, Weather by CustomWeather, © 2015

Note: Actual official high and low records may vary slightly from our data, if they occured in-between our weather recording intervals... More about our weather records

Advertising

Potsdam weather history for previous 24 hours

 ConditionsComfort  
Time TempWeatherWind HumidityBarometerVisibility
4:00 PM
Wed, Sep 2
67 °FScattered clouds.6 mph46%29.99 "Hg31 mi
3:00 PM67 °FScattered clouds.5 mph48%29.99 "Hg28 mi
2:00 PM64 °FScattered clouds.6 mph54%30.00 "Hg28 mi
1:00 PM64 °FScattered clouds.6 mph56%30.01 "Hg28 mi
12:00 PM64 °FPartly sunny.5 mph62%30.02 "Hg28 mi
11:00 AM62 °FPartly sunny.6 mph75%30.02 "Hg25 mi
10:00 AM59 °FPartly sunny.5 mph79%30.01 "Hg25 mi
9:00 AM57 °FScattered clouds.7 mph89%30.01 "Hg22 mi
8:00 AM55 °FScattered clouds.6 mph95%30.00 "Hg16 mi
7:00 AM55 °FPartly sunny.6 mph98%29.98 "Hg14 mi
6:00 AM55 °FPassing clouds.6 mph96%29.98 "Hg19 mi
5:00 AM55 °FPassing clouds.6 mph95%29.97 "Hg19 mi
4:00 AM56 °FPassing clouds.7 mph95%29.96 "Hg19 mi
3:00 AM57 °FPassing clouds.6 mph94%29.95 "Hg22 mi
2:00 AM59 °FOvercast.6 mph94%29.94 "Hg25 mi
1:00 AM60 °FOvercast.7 mph92%29.93 "Hg28 mi
11:00 PM
Tue, Sep 1
60 °FLow clouds.8 mph94%29.89 "Hg28 mi
10:00 PM61 °FLow clouds.8 mph96%29.86 "Hg25 mi
9:00 PM61 °FOvercast.6 mph97%29.85 "Hg22 mi
8:00 PM61 °FLow clouds.6 mph96%29.83 "Hg25 mi
7:00 PM63 °FThunderstorms. Low clouds.7 mph96%29.78 "Hg16 mi
6:00 PM67 °FSprinkles. Overcast.8 mph90%29.75 "Hg14 mi
5:00 PM76 °FPartly sunny.7 mph63%29.71 "Hg16 mi
Weather by CustomWeather, © 2015

See weather overviewHow to use our weather pages